Index of /20260415/WXO-DD/model_rdps/10km/18/043
Name Last modified Size Description
Parent Directory -
20260415T18Z_MSC_RDPS_AbsoluteVorticity_IsbL-0250_RLatLon0.09_PT043H.grib2 2026-04-15 20:52 604K
20260415T18Z_MSC_RDPS_AbsoluteVorticity_IsbL-0500_RLatLon0.09_PT043H.grib2 2026-04-15 20:52 557K
20260415T18Z_MSC_RDPS_AbsoluteVorticity_IsbL-0700_RLatLon0.09_PT043H.grib2 2026-04-15 20:52 610K
20260415T18Z_MSC_RDPS_AbsoluteVorticity_IsbL-0850_RLatLon0.09_PT043H.grib2 2026-04-15 20:52 783K
20260415T18Z_MSC_RDPS_AirTemp_AGL-120m_RLatLon0.09_PT043H.grib2 2026-04-15 20:52 386K
20260415T18Z_MSC_RDPS_AirTemp_AGL-2m_RLatLon0.09_PT043H.grib2 2026-04-15 20:52 653K
20260415T18Z_MSC_RDPS_AirTemp_AGL-40m_RLatLon0.09_PT043H.grib2 2026-04-15 20:52 420K
20260415T18Z_MSC_RDPS_AirTemp_AGL-80m_RLatLon0.09_PT043H.grib2 2026-04-15 20:52 395K
20260415T18Z_MSC_RDPS_AirTemp_IsbL-0001_RLatLon0.09_PT043H.grib2 2026-04-15 20:52 233K
20260415T18Z_MSC_RDPS_AirTemp_IsbL-0005_RLatLon0.09_PT043H.grib2 2026-04-15 20:52 332K
20260415T18Z_MSC_RDPS_AirTemp_IsbL-0010_RLatLon0.09_PT043H.grib2 2026-04-15 20:52 303K
20260415T18Z_MSC_RDPS_AirTemp_IsbL-0020_RLatLon0.09_PT043H.grib2 2026-04-15 20:52 323K
20260415T18Z_MSC_RDPS_AirTemp_IsbL-0030_RLatLon0.09_PT043H.grib2 2026-04-15 20:52 383K
20260415T18Z_MSC_RDPS_AirTemp_IsbL-0050_RLatLon0.09_PT043H.grib2 2026-04-15 20:52 330K
20260415T18Z_MSC_RDPS_AirTemp_IsbL-0100_RLatLon0.09_PT043H.grib2 2026-04-15 20:52 390K
20260415T18Z_MSC_RDPS_AirTemp_IsbL-0150_RLatLon0.09_PT043H.grib2 2026-04-15 20:52 406K
20260415T18Z_MSC_RDPS_AirTemp_IsbL-0175_RLatLon0.09_PT043H.grib2 2026-04-15 20:52 405K
20260415T18Z_MSC_RDPS_AirTemp_IsbL-0200_RLatLon0.09_PT043H.grib2 2026-04-15 20:52 412K
20260415T18Z_MSC_RDPS_AirTemp_IsbL-0225_RLatLon0.09_PT043H.grib2 2026-04-15 20:52 415K
20260415T18Z_MSC_RDPS_AirTemp_IsbL-0250_RLatLon0.09_PT043H.grib2 2026-04-15 20:52 424K
20260415T18Z_MSC_RDPS_AirTemp_IsbL-0275_RLatLon0.09_PT043H.grib2 2026-04-15 20:52 404K
20260415T18Z_MSC_RDPS_AirTemp_IsbL-0300_RLatLon0.09_PT043H.grib2 2026-04-15 20:52 409K
20260415T18Z_MSC_RDPS_AirTemp_IsbL-0350_RLatLon0.09_PT043H.grib2 2026-04-15 20:52 418K
20260415T18Z_MSC_RDPS_AirTemp_IsbL-0400_RLatLon0.09_PT043H.grib2 2026-04-15 20:52 418K
20260415T18Z_MSC_RDPS_AirTemp_IsbL-0450_RLatLon0.09_PT043H.grib2 2026-04-15 20:52 390K
20260415T18Z_MSC_RDPS_AirTemp_IsbL-0500_RLatLon0.09_PT043H.grib2 2026-04-15 20:52 400K
20260415T18Z_MSC_RDPS_AirTemp_IsbL-0550_RLatLon0.09_PT043H.grib2 2026-04-15 20:52 420K
20260415T18Z_MSC_RDPS_AirTemp_IsbL-0600_RLatLon0.09_PT043H.grib2 2026-04-15 20:52 437K
20260415T18Z_MSC_RDPS_AirTemp_IsbL-0650_RLatLon0.09_PT043H.grib2 2026-04-15 20:52 452K
20260415T18Z_MSC_RDPS_AirTemp_IsbL-0700_RLatLon0.09_PT043H.grib2 2026-04-15 20:52 476K
20260415T18Z_MSC_RDPS_AirTemp_IsbL-0750_RLatLon0.09_PT043H.grib2 2026-04-15 20:52 517K
20260415T18Z_MSC_RDPS_AirTemp_IsbL-0800_RLatLon0.09_PT043H.grib2 2026-04-15 20:52 576K
20260415T18Z_MSC_RDPS_AirTemp_IsbL-0850_RLatLon0.09_PT043H.grib2 2026-04-15 20:52 509K
20260415T18Z_MSC_RDPS_AirTemp_IsbL-0875_RLatLon0.09_PT043H.grib2 2026-04-15 20:52 526K
20260415T18Z_MSC_RDPS_AirTemp_IsbL-0900_RLatLon0.09_PT043H.grib2 2026-04-15 20:52 535K
20260415T18Z_MSC_RDPS_AirTemp_IsbL-0925_RLatLon0.09_PT043H.grib2 2026-04-15 20:52 535K
20260415T18Z_MSC_RDPS_AirTemp_IsbL-0950_RLatLon0.09_PT043H.grib2 2026-04-15 20:52 532K
20260415T18Z_MSC_RDPS_AirTemp_IsbL-0970_RLatLon0.09_PT043H.grib2 2026-04-15 20:52 529K
20260415T18Z_MSC_RDPS_AirTemp_IsbL-0985_RLatLon0.09_PT043H.grib2 2026-04-15 20:52 530K
20260415T18Z_MSC_RDPS_AirTemp_IsbL-1000_RLatLon0.09_PT043H.grib2 2026-04-15 20:52 517K
20260415T18Z_MSC_RDPS_AirTemp_IsbL-1015_RLatLon0.09_PT043H.grib2 2026-04-15 20:52 511K
20260415T18Z_MSC_RDPS_Albedo_Sfc_RLatLon0.09_PT043H.grib2 2026-04-15 20:52 163K
20260415T18Z_MSC_RDPS_CAPE_Sfc_RLatLon0.09_PT043H.grib2 2026-04-15 20:52 1.7M
20260415T18Z_MSC_RDPS_CIN_Sfc_RLatLon0.09_PT043H.grib2 2026-04-15 20:52 1.2M
20260415T18Z_MSC_RDPS_CloudWater_EAtm_RLatLon0.09_PT043H.grib2 2026-04-15 20:52 212K
20260415T18Z_MSC_RDPS_ConvectivePrecip-Accum_Sfc_RLatLon0.09_PT043H.grib2 2026-04-15 20:52 1.0M
20260415T18Z_MSC_RDPS_DewPointDepression_AGL-2m_RLatLon0.09_PT043H.grib2 2026-04-15 20:52 394K
20260415T18Z_MSC_RDPS_DewPointDepression_IsbL-0001_RLatLon0.09_PT043H.grib2 2026-04-15 20:52 193
20260415T18Z_MSC_RDPS_DewPointDepression_IsbL-0005_RLatLon0.09_PT043H.grib2 2026-04-15 20:52 193
20260415T18Z_MSC_RDPS_DewPointDepression_IsbL-0010_RLatLon0.09_PT043H.grib2 2026-04-15 20:52 193
20260415T18Z_MSC_RDPS_DewPointDepression_IsbL-0020_RLatLon0.09_PT043H.grib2 2026-04-15 20:52 193
20260415T18Z_MSC_RDPS_DewPointDepression_IsbL-0030_RLatLon0.09_PT043H.grib2 2026-04-15 20:52 6.0K
20260415T18Z_MSC_RDPS_DewPointDepression_IsbL-0050_RLatLon0.09_PT043H.grib2 2026-04-15 20:52 106K
20260415T18Z_MSC_RDPS_DewPointDepression_IsbL-0100_RLatLon0.09_PT043H.grib2 2026-04-15 20:52 122K
20260415T18Z_MSC_RDPS_DewPointDepression_IsbL-0150_RLatLon0.09_PT043H.grib2 2026-04-15 20:52 141K
20260415T18Z_MSC_RDPS_DewPointDepression_IsbL-0175_RLatLon0.09_PT043H.grib2 2026-04-15 20:52 172K
20260415T18Z_MSC_RDPS_DewPointDepression_IsbL-0200_RLatLon0.09_PT043H.grib2 2026-04-15 20:52 200K
20260415T18Z_MSC_RDPS_DewPointDepression_IsbL-0225_RLatLon0.09_PT043H.grib2 2026-04-15 20:52 242K
20260415T18Z_MSC_RDPS_DewPointDepression_IsbL-0250_RLatLon0.09_PT043H.grib2 2026-04-15 20:52 290K
20260415T18Z_MSC_RDPS_DewPointDepression_IsbL-0275_RLatLon0.09_PT043H.grib2 2026-04-15 20:52 302K
20260415T18Z_MSC_RDPS_DewPointDepression_IsbL-0300_RLatLon0.09_PT043H.grib2 2026-04-15 20:52 319K
20260415T18Z_MSC_RDPS_DewPointDepression_IsbL-0350_RLatLon0.09_PT043H.grib2 2026-04-15 20:52 321K
20260415T18Z_MSC_RDPS_DewPointDepression_IsbL-0400_RLatLon0.09_PT043H.grib2 2026-04-15 20:52 329K
20260415T18Z_MSC_RDPS_DewPointDepression_IsbL-0450_RLatLon0.09_PT043H.grib2 2026-04-15 20:52 336K
20260415T18Z_MSC_RDPS_DewPointDepression_IsbL-0500_RLatLon0.09_PT043H.grib2 2026-04-15 20:52 339K
20260415T18Z_MSC_RDPS_DewPointDepression_IsbL-0550_RLatLon0.09_PT043H.grib2 2026-04-15 20:52 355K
20260415T18Z_MSC_RDPS_DewPointDepression_IsbL-0600_RLatLon0.09_PT043H.grib2 2026-04-15 20:52 369K
20260415T18Z_MSC_RDPS_DewPointDepression_IsbL-0650_RLatLon0.09_PT043H.grib2 2026-04-15 20:52 377K
20260415T18Z_MSC_RDPS_DewPointDepression_IsbL-0700_RLatLon0.09_PT043H.grib2 2026-04-15 20:52 387K
20260415T18Z_MSC_RDPS_DewPointDepression_IsbL-0750_RLatLon0.09_PT043H.grib2 2026-04-15 20:52 412K
20260415T18Z_MSC_RDPS_DewPointDepression_IsbL-0800_RLatLon0.09_PT043H.grib2 2026-04-15 20:52 447K
20260415T18Z_MSC_RDPS_DewPointDepression_IsbL-0850_RLatLon0.09_PT043H.grib2 2026-04-15 20:52 475K
20260415T18Z_MSC_RDPS_DewPointDepression_IsbL-0875_RLatLon0.09_PT043H.grib2 2026-04-15 20:52 469K
20260415T18Z_MSC_RDPS_DewPointDepression_IsbL-0900_RLatLon0.09_PT043H.grib2 2026-04-15 20:52 463K
20260415T18Z_MSC_RDPS_DewPointDepression_IsbL-0925_RLatLon0.09_PT043H.grib2 2026-04-15 20:52 450K
20260415T18Z_MSC_RDPS_DewPointDepression_IsbL-0950_RLatLon0.09_PT043H.grib2 2026-04-15 20:52 438K
20260415T18Z_MSC_RDPS_DewPointDepression_IsbL-0970_RLatLon0.09_PT043H.grib2 2026-04-15 20:52 436K
20260415T18Z_MSC_RDPS_DewPointDepression_IsbL-0985_RLatLon0.09_PT043H.grib2 2026-04-15 20:52 434K
20260415T18Z_MSC_RDPS_DewPointDepression_IsbL-1000_RLatLon0.09_PT043H.grib2 2026-04-15 20:52 432K
20260415T18Z_MSC_RDPS_DewPointDepression_IsbL-1015_RLatLon0.09_PT043H.grib2 2026-04-15 20:52 426K
20260415T18Z_MSC_RDPS_DewPoint_AGL-2m_RLatLon0.09_PT043H.grib2 2026-04-15 20:52 319K
20260415T18Z_MSC_RDPS_DownwardLongwaveRadiationFlux-Accum_Sfc_RLatLon0.09_PT043H.grib2 2026-04-15 20:52 394K
20260415T18Z_MSC_RDPS_DownwardShortwaveRadiationFlux-Accum_NTAtm_RLatLon0.09_PT043H.grib2 2026-04-15 20:52 155K
20260415T18Z_MSC_RDPS_DownwardShortwaveRadiationFlux-Accum_Sfc_RLatLon0.09_PT043H.grib2 2026-04-15 20:52 560K
20260415T18Z_MSC_RDPS_FreezingRain-Accum1h_Sfc_RLatLon0.09_PT043H.grib2 2026-04-15 20:52 29K
20260415T18Z_MSC_RDPS_FreezingRain-Accum_Sfc_RLatLon0.09_PT043H.grib2 2026-04-15 20:52 127K
20260415T18Z_MSC_RDPS_GeopotentialHeight_IsbL-0001_RLatLon0.09_PT043H.grib2 2026-04-15 20:52 209K
20260415T18Z_MSC_RDPS_GeopotentialHeight_IsbL-0005_RLatLon0.09_PT043H.grib2 2026-04-15 20:52 234K
20260415T18Z_MSC_RDPS_GeopotentialHeight_IsbL-0010_RLatLon0.09_PT043H.grib2 2026-04-15 20:52 307K
20260415T18Z_MSC_RDPS_GeopotentialHeight_IsbL-0020_RLatLon0.09_PT043H.grib2 2026-04-15 20:52 336K
20260415T18Z_MSC_RDPS_GeopotentialHeight_IsbL-0030_RLatLon0.09_PT043H.grib2 2026-04-15 20:52 339K
20260415T18Z_MSC_RDPS_GeopotentialHeight_IsbL-0050_RLatLon0.09_PT043H.grib2 2026-04-15 20:52 238K
20260415T18Z_MSC_RDPS_GeopotentialHeight_IsbL-0100_RLatLon0.09_PT043H.grib2 2026-04-15 20:52 222K
20260415T18Z_MSC_RDPS_GeopotentialHeight_IsbL-0150_RLatLon0.09_PT043H.grib2 2026-04-15 20:52 263K
20260415T18Z_MSC_RDPS_GeopotentialHeight_IsbL-0175_RLatLon0.09_PT043H.grib2 2026-04-15 20:52 264K
20260415T18Z_MSC_RDPS_GeopotentialHeight_IsbL-0200_RLatLon0.09_PT043H.grib2 2026-04-15 20:52 266K
20260415T18Z_MSC_RDPS_GeopotentialHeight_IsbL-0225_RLatLon0.09_PT043H.grib2 2026-04-15 20:52 266K
20260415T18Z_MSC_RDPS_GeopotentialHeight_IsbL-0250_RLatLon0.09_PT043H.grib2 2026-04-15 20:52 268K
20260415T18Z_MSC_RDPS_GeopotentialHeight_IsbL-0275_RLatLon0.09_PT043H.grib2 2026-04-15 20:52 267K
20260415T18Z_MSC_RDPS_GeopotentialHeight_IsbL-0300_RLatLon0.09_PT043H.grib2 2026-04-15 20:52 266K
20260415T18Z_MSC_RDPS_GeopotentialHeight_IsbL-0350_RLatLon0.09_PT043H.grib2 2026-04-15 20:52 231K
20260415T18Z_MSC_RDPS_GeopotentialHeight_IsbL-0400_RLatLon0.09_PT043H.grib2 2026-04-15 20:52 227K
20260415T18Z_MSC_RDPS_GeopotentialHeight_IsbL-0450_RLatLon0.09_PT043H.grib2 2026-04-15 20:52 222K
20260415T18Z_MSC_RDPS_GeopotentialHeight_IsbL-0500_RLatLon0.09_PT043H.grib2 2026-04-15 20:52 289K
20260415T18Z_MSC_RDPS_GeopotentialHeight_IsbL-0550_RLatLon0.09_PT043H.grib2 2026-04-15 20:52 285K
20260415T18Z_MSC_RDPS_GeopotentialHeight_IsbL-0600_RLatLon0.09_PT043H.grib2 2026-04-15 20:52 280K
20260415T18Z_MSC_RDPS_GeopotentialHeight_IsbL-0650_RLatLon0.09_PT043H.grib2 2026-04-15 20:52 279K
20260415T18Z_MSC_RDPS_GeopotentialHeight_IsbL-0700_RLatLon0.09_PT043H.grib2 2026-04-15 20:52 250K
20260415T18Z_MSC_RDPS_GeopotentialHeight_IsbL-0750_RLatLon0.09_PT043H.grib2 2026-04-15 20:52 252K
20260415T18Z_MSC_RDPS_GeopotentialHeight_IsbL-0800_RLatLon0.09_PT043H.grib2 2026-04-15 20:52 342K
20260415T18Z_MSC_RDPS_GeopotentialHeight_IsbL-0850_RLatLon0.09_PT043H.grib2 2026-04-15 20:52 353K
20260415T18Z_MSC_RDPS_GeopotentialHeight_IsbL-0875_RLatLon0.09_PT043H.grib2 2026-04-15 20:52 354K
20260415T18Z_MSC_RDPS_GeopotentialHeight_IsbL-0900_RLatLon0.09_PT043H.grib2 2026-04-15 20:52 361K
20260415T18Z_MSC_RDPS_GeopotentialHeight_IsbL-0925_RLatLon0.09_PT043H.grib2 2026-04-15 20:52 364K
20260415T18Z_MSC_RDPS_GeopotentialHeight_IsbL-0950_RLatLon0.09_PT043H.grib2 2026-04-15 20:52 367K
20260415T18Z_MSC_RDPS_GeopotentialHeight_IsbL-0970_RLatLon0.09_PT043H.grib2 2026-04-15 20:52 373K
20260415T18Z_MSC_RDPS_GeopotentialHeight_IsbL-0985_RLatLon0.09_PT043H.grib2 2026-04-15 20:52 381K
20260415T18Z_MSC_RDPS_GeopotentialHeight_IsbL-1000_RLatLon0.09_PT043H.grib2 2026-04-15 20:52 394K
20260415T18Z_MSC_RDPS_GeopotentialHeight_IsbL-1015_RLatLon0.09_PT043H.grib2 2026-04-15 20:52 411K
20260415T18Z_MSC_RDPS_Humidex_Sfc_RLatLon0.09_PT043H.grib2 2026-04-15 20:52 2.4M
20260415T18Z_MSC_RDPS_IcePellets-Accum1h_Sfc_RLatLon0.09_PT043H.grib2 2026-04-15 20:52 12K
20260415T18Z_MSC_RDPS_IcePellets-Accum_Sfc_RLatLon0.09_PT043H.grib2 2026-04-15 20:52 33K
20260415T18Z_MSC_RDPS_KIndex_Sfc_RLatLon0.09_PT043H.grib2 2026-04-15 20:52 2.4M
20260415T18Z_MSC_RDPS_LatentHeatNetFlux_Sfc_RLatLon0.09_PT043H.grib2 2026-04-15 20:52 420K
20260415T18Z_MSC_RDPS_LiftedIndex-MU-VT_IsbL-0500_RLatLon0.09_PT043H.grib2 2026-04-15 20:52 2.4M
20260415T18Z_MSC_RDPS_NetLongwaveRadiationFlux-Accum_Sfc_RLatLon0.09_PT043H.grib2 2026-04-15 20:52 526K
20260415T18Z_MSC_RDPS_NetShortwaveRadiationFlux-Accum_Sfc_RLatLon0.09_PT043H.grib2 2026-04-15 20:52 566K
20260415T18Z_MSC_RDPS_PlanetaryBoundaryLayerHeight_Sfc_RLatLon0.09_PT043H.grib2 2026-04-15 20:52 1.1M
20260415T18Z_MSC_RDPS_Precip-Accum1h_Sfc_RLatLon0.09_PT043H.grib2 2026-04-15 20:52 1.3M
20260415T18Z_MSC_RDPS_Precip-Accum_Sfc_RLatLon0.09_PT043H.grib2 2026-04-15 20:52 2.0M
20260415T18Z_MSC_RDPS_PrecipRate_Sfc_RLatLon0.09_PT043H.grib2 2026-04-15 20:52 188K
20260415T18Z_MSC_RDPS_PrecipType-Instant_Sfc_RLatLon0.09_PT043H.grib2 2026-04-15 20:52 572K
20260415T18Z_MSC_RDPS_Pressure-Trend3h_Sfc_RLatLon0.09_PT043H.grib2 2026-04-15 20:52 1.2M
20260415T18Z_MSC_RDPS_Pressure_MSL_RLatLon0.09_PT043H.grib2 2026-04-15 20:52 296K
20260415T18Z_MSC_RDPS_Pressure_PVU-1.5_RLatLon0.09_PT043H.grib2 2026-04-15 20:52 2.4M
20260415T18Z_MSC_RDPS_Pressure_PVU-1_RLatLon0.09_PT043H.grib2 2026-04-15 20:52 2.4M
20260415T18Z_MSC_RDPS_Pressure_PVU-2_RLatLon0.09_PT043H.grib2 2026-04-15 20:52 2.4M
20260415T18Z_MSC_RDPS_Pressure_Sfc_RLatLon0.09_PT043H.grib2 2026-04-15 20:52 501K
20260415T18Z_MSC_RDPS_RadiativeTemp_Sfc_RLatLon0.09_PT043H.grib2 2026-04-15 20:52 315K
20260415T18Z_MSC_RDPS_Rain-Accum1h_Sfc_RLatLon0.09_PT043H.grib2 2026-04-15 20:52 605K
20260415T18Z_MSC_RDPS_Rain-Accum_Sfc_RLatLon0.09_PT043H.grib2 2026-04-15 20:52 1.5M
20260415T18Z_MSC_RDPS_RelativeHumidity_AGL-2m_RLatLon0.09_PT043H.grib2 2026-04-15 20:52 1.0M
20260415T18Z_MSC_RDPS_RelativeHumidity_IsbL-0010_RLatLon0.09_PT043H.grib2 2026-04-15 20:52 643K
20260415T18Z_MSC_RDPS_RelativeHumidity_IsbL-0020_RLatLon0.09_PT043H.grib2 2026-04-15 20:52 405K
20260415T18Z_MSC_RDPS_RelativeHumidity_IsbL-0030_RLatLon0.09_PT043H.grib2 2026-04-15 20:52 360K
20260415T18Z_MSC_RDPS_RelativeHumidity_IsbL-0050_RLatLon0.09_PT043H.grib2 2026-04-15 20:52 392K
20260415T18Z_MSC_RDPS_RelativeHumidity_IsbL-0100_RLatLon0.09_PT043H.grib2 2026-04-15 20:52 364K
20260415T18Z_MSC_RDPS_RelativeHumidity_IsbL-0150_RLatLon0.09_PT043H.grib2 2026-04-15 20:52 371K
20260415T18Z_MSC_RDPS_RelativeHumidity_IsbL-0175_RLatLon0.09_PT043H.grib2 2026-04-15 20:52 451K
20260415T18Z_MSC_RDPS_RelativeHumidity_IsbL-0200_RLatLon0.09_PT043H.grib2 2026-04-15 20:52 530K
20260415T18Z_MSC_RDPS_RelativeHumidity_IsbL-0225_RLatLon0.09_PT043H.grib2 2026-04-15 20:52 600K
20260415T18Z_MSC_RDPS_RelativeHumidity_IsbL-0250_RLatLon0.09_PT043H.grib2 2026-04-15 20:52 678K
20260415T18Z_MSC_RDPS_RelativeHumidity_IsbL-0275_RLatLon0.09_PT043H.grib2 2026-04-15 20:52 711K
20260415T18Z_MSC_RDPS_RelativeHumidity_IsbL-0300_RLatLon0.09_PT043H.grib2 2026-04-15 20:52 755K
20260415T18Z_MSC_RDPS_RelativeHumidity_IsbL-0350_RLatLon0.09_PT043H.grib2 2026-04-15 20:52 770K
20260415T18Z_MSC_RDPS_RelativeHumidity_IsbL-0400_RLatLon0.09_PT043H.grib2 2026-04-15 20:52 783K
20260415T18Z_MSC_RDPS_RelativeHumidity_IsbL-0450_RLatLon0.09_PT043H.grib2 2026-04-15 20:52 790K
20260415T18Z_MSC_RDPS_RelativeHumidity_IsbL-0500_RLatLon0.09_PT043H.grib2 2026-04-15 20:52 795K
20260415T18Z_MSC_RDPS_RelativeHumidity_IsbL-0550_RLatLon0.09_PT043H.grib2 2026-04-15 20:52 829K
20260415T18Z_MSC_RDPS_RelativeHumidity_IsbL-0600_RLatLon0.09_PT043H.grib2 2026-04-15 20:52 852K
20260415T18Z_MSC_RDPS_RelativeHumidity_IsbL-0650_RLatLon0.09_PT043H.grib2 2026-04-15 20:52 862K
20260415T18Z_MSC_RDPS_RelativeHumidity_IsbL-0700_RLatLon0.09_PT043H.grib2 2026-04-15 20:52 881K
20260415T18Z_MSC_RDPS_RelativeHumidity_IsbL-0750_RLatLon0.09_PT043H.grib2 2026-04-15 20:52 928K
20260415T18Z_MSC_RDPS_RelativeHumidity_IsbL-0800_RLatLon0.09_PT043H.grib2 2026-04-15 20:52 1.0M
20260415T18Z_MSC_RDPS_RelativeHumidity_IsbL-0850_RLatLon0.09_PT043H.grib2 2026-04-15 20:52 1.0M
20260415T18Z_MSC_RDPS_RelativeHumidity_IsbL-0875_RLatLon0.09_PT043H.grib2 2026-04-15 20:52 1.1M
20260415T18Z_MSC_RDPS_RelativeHumidity_IsbL-0900_RLatLon0.09_PT043H.grib2 2026-04-15 20:52 1.1M
20260415T18Z_MSC_RDPS_RelativeHumidity_IsbL-0925_RLatLon0.09_PT043H.grib2 2026-04-15 20:52 1.1M
20260415T18Z_MSC_RDPS_RelativeHumidity_IsbL-0950_RLatLon0.09_PT043H.grib2 2026-04-15 20:52 1.1M
20260415T18Z_MSC_RDPS_RelativeHumidity_IsbL-0970_RLatLon0.09_PT043H.grib2 2026-04-15 20:52 1.1M
20260415T18Z_MSC_RDPS_RelativeHumidity_IsbL-0985_RLatLon0.09_PT043H.grib2 2026-04-15 20:52 1.1M
20260415T18Z_MSC_RDPS_RelativeHumidity_IsbL-1000_RLatLon0.09_PT043H.grib2 2026-04-15 20:52 1.0M
20260415T18Z_MSC_RDPS_RelativeHumidity_IsbL-1015_RLatLon0.09_PT043H.grib2 2026-04-15 20:52 1.0M
20260415T18Z_MSC_RDPS_Runoff-Accum_Sfc_RLatLon0.09_PT043H.grib2 2026-04-15 20:52 50K
20260415T18Z_MSC_RDPS_SWEATIndex_Sfc_RLatLon0.09_PT043H.grib2 2026-04-15 20:52 2.4M
20260415T18Z_MSC_RDPS_SeeingIndex_EAtm_RLatLon0.09_PT043H.grib2 2026-04-15 20:52 1.0M
20260415T18Z_MSC_RDPS_SensibleHeatNetFlux_Sfc_RLatLon0.09_PT043H.grib2 2026-04-15 20:52 317K
20260415T18Z_MSC_RDPS_ShowalterIndex_IsbL-0500_RLatLon0.09_PT043H.grib2 2026-04-15 20:52 2.6M
20260415T18Z_MSC_RDPS_SkyTransparencyIndex_EAtm_RLatLon0.09_PT043H.grib2 2026-04-15 20:52 729K
20260415T18Z_MSC_RDPS_Snow-Accum1h_Sfc_RLatLon0.09_PT043H.grib2 2026-04-15 20:52 501K
20260415T18Z_MSC_RDPS_Snow-Accum_Sfc_RLatLon0.09_PT043H.grib2 2026-04-15 20:52 834K
20260415T18Z_MSC_RDPS_SnowDensity_Sfc_RLatLon0.09_PT043H.grib2 2026-04-15 20:52 179K
20260415T18Z_MSC_RDPS_SnowDepth_Sfc_RLatLon0.09_PT043H.grib2 2026-04-15 20:52 741K
20260415T18Z_MSC_RDPS_SoilTemp_DBS-0to10cm_RLatLon0.09_PT043H.grib2 2026-04-15 20:52 230K
20260415T18Z_MSC_RDPS_SoilTemp_Sfc_RLatLon0.09_PT043H.grib2 2026-04-15 20:52 286K
20260415T18Z_MSC_RDPS_SoilVolumetricIceContent_Sfc_RLatLon0.09_PT043H.grib2 2026-04-15 20:52 178K
20260415T18Z_MSC_RDPS_SoilVolumetricWaterContent_DBS-0to10cm_RLatLon0.09_PT043H.grib2 2026-04-15 20:52 245K
20260415T18Z_MSC_RDPS_SoilVolumetricWaterContent_DBS-0to1cm_RLatLon0.09_PT043H.grib2 2026-04-15 20:52 336K
20260415T18Z_MSC_RDPS_SpecificHumidity_AGL-120m_RLatLon0.09_PT043H.grib2 2026-04-15 20:52 484K
20260415T18Z_MSC_RDPS_SpecificHumidity_AGL-2m_RLatLon0.09_PT043H.grib2 2026-04-15 20:52 651K
20260415T18Z_MSC_RDPS_SpecificHumidity_AGL-40m_RLatLon0.09_PT043H.grib2 2026-04-15 20:52 491K
20260415T18Z_MSC_RDPS_SpecificHumidity_AGL-80m_RLatLon0.09_PT043H.grib2 2026-04-15 20:52 487K
20260415T18Z_MSC_RDPS_SpecificHumidity_IsbL-0001_RLatLon0.09_PT043H.grib2 2026-04-15 20:52 298K
20260415T18Z_MSC_RDPS_SpecificHumidity_IsbL-0005_RLatLon0.09_PT043H.grib2 2026-04-15 20:52 344K
20260415T18Z_MSC_RDPS_SpecificHumidity_IsbL-0010_RLatLon0.09_PT043H.grib2 2026-04-15 20:52 378K
20260415T18Z_MSC_RDPS_SpecificHumidity_IsbL-0020_RLatLon0.09_PT043H.grib2 2026-04-15 20:52 491K
20260415T18Z_MSC_RDPS_SpecificHumidity_IsbL-0030_RLatLon0.09_PT043H.grib2 2026-04-15 20:52 433K
20260415T18Z_MSC_RDPS_SpecificHumidity_IsbL-0050_RLatLon0.09_PT043H.grib2 2026-04-15 20:52 499K
20260415T18Z_MSC_RDPS_SpecificHumidity_IsbL-0100_RLatLon0.09_PT043H.grib2 2026-04-15 20:52 488K
20260415T18Z_MSC_RDPS_SpecificHumidity_IsbL-0150_RLatLon0.09_PT043H.grib2 2026-04-15 20:52 454K
20260415T18Z_MSC_RDPS_SpecificHumidity_IsbL-0175_RLatLon0.09_PT043H.grib2 2026-04-15 20:52 519K
20260415T18Z_MSC_RDPS_SpecificHumidity_IsbL-0200_RLatLon0.09_PT043H.grib2 2026-04-15 20:52 428K
20260415T18Z_MSC_RDPS_SpecificHumidity_IsbL-0225_RLatLon0.09_PT043H.grib2 2026-04-15 20:52 534K
20260415T18Z_MSC_RDPS_SpecificHumidity_IsbL-0250_RLatLon0.09_PT043H.grib2 2026-04-15 20:52 540K
20260415T18Z_MSC_RDPS_SpecificHumidity_IsbL-0275_RLatLon0.09_PT043H.grib2 2026-04-15 20:52 456K
20260415T18Z_MSC_RDPS_SpecificHumidity_IsbL-0300_RLatLon0.09_PT043H.grib2 2026-04-15 20:52 527K
20260415T18Z_MSC_RDPS_SpecificHumidity_IsbL-0350_RLatLon0.09_PT043H.grib2 2026-04-15 20:52 515K
20260415T18Z_MSC_RDPS_SpecificHumidity_IsbL-0400_RLatLon0.09_PT043H.grib2 2026-04-15 20:52 498K
20260415T18Z_MSC_RDPS_SpecificHumidity_IsbL-0450_RLatLon0.09_PT043H.grib2 2026-04-15 20:52 551K
20260415T18Z_MSC_RDPS_SpecificHumidity_IsbL-0500_RLatLon0.09_PT043H.grib2 2026-04-15 20:52 487K
20260415T18Z_MSC_RDPS_SpecificHumidity_IsbL-0550_RLatLon0.09_PT043H.grib2 2026-04-15 20:52 547K
20260415T18Z_MSC_RDPS_SpecificHumidity_IsbL-0600_RLatLon0.09_PT043H.grib2 2026-04-15 20:52 618K
20260415T18Z_MSC_RDPS_SpecificHumidity_IsbL-0650_RLatLon0.09_PT043H.grib2 2026-04-15 20:52 534K
20260415T18Z_MSC_RDPS_SpecificHumidity_IsbL-0700_RLatLon0.09_PT043H.grib2 2026-04-15 20:52 574K
20260415T18Z_MSC_RDPS_SpecificHumidity_IsbL-0750_RLatLon0.09_PT043H.grib2 2026-04-15 20:52 632K
20260415T18Z_MSC_RDPS_SpecificHumidity_IsbL-0800_RLatLon0.09_PT043H.grib2 2026-04-15 20:52 712K
20260415T18Z_MSC_RDPS_SpecificHumidity_IsbL-0850_RLatLon0.09_PT043H.grib2 2026-04-15 20:52 795K
20260415T18Z_MSC_RDPS_SpecificHumidity_IsbL-0875_RLatLon0.09_PT043H.grib2 2026-04-15 20:52 813K
20260415T18Z_MSC_RDPS_SpecificHumidity_IsbL-0900_RLatLon0.09_PT043H.grib2 2026-04-15 20:52 826K
20260415T18Z_MSC_RDPS_SpecificHumidity_IsbL-0925_RLatLon0.09_PT043H.grib2 2026-04-15 20:52 829K
20260415T18Z_MSC_RDPS_SpecificHumidity_IsbL-0950_RLatLon0.09_PT043H.grib2 2026-04-15 20:52 827K
20260415T18Z_MSC_RDPS_SpecificHumidity_IsbL-0970_RLatLon0.09_PT043H.grib2 2026-04-15 20:52 822K
20260415T18Z_MSC_RDPS_SpecificHumidity_IsbL-0985_RLatLon0.09_PT043H.grib2 2026-04-15 20:52 817K
20260415T18Z_MSC_RDPS_SpecificHumidity_IsbL-1000_RLatLon0.09_PT043H.grib2 2026-04-15 20:52 811K
20260415T18Z_MSC_RDPS_SpecificHumidity_IsbL-1015_RLatLon0.09_PT043H.grib2 2026-04-15 20:52 662K
20260415T18Z_MSC_RDPS_SpecificHumidity_Sfc_RLatLon0.09_PT043H.grib2 2026-04-15 20:52 288K
20260415T18Z_MSC_RDPS_StormRelativeHelicity_EtaL-10000_RLatLon0.09_PT043H.grib2 2026-04-15 20:52 1.1M
20260415T18Z_MSC_RDPS_StormSeverityIndex_EtaL-10000_RLatLon0.09_PT043H.grib2 2026-04-15 20:52 1.2M
20260415T18Z_MSC_RDPS_Thickness_IsbL-0850to0700_RLatLon0.09_PT043H.grib2 2026-04-15 20:52 174K
20260415T18Z_MSC_RDPS_Thickness_IsbL-1000to0500_RLatLon0.09_PT043H.grib2 2026-04-15 20:52 197K
20260415T18Z_MSC_RDPS_Thickness_IsbL-1000to0850_RLatLon0.09_PT043H.grib2 2026-04-15 20:52 262K
20260415T18Z_MSC_RDPS_TotalCloudCover_Sfc_RLatLon0.09_PT043H.grib2 2026-04-15 20:52 677K
20260415T18Z_MSC_RDPS_TotalTotalsIndex_Sfc_RLatLon0.09_PT043H.grib2 2026-04-15 20:52 2.4M
20260415T18Z_MSC_RDPS_UVIndex-ClearSky_Sfc_RLatLon0.09_PT043H.grib2 2026-04-15 20:52 172K
20260415T18Z_MSC_RDPS_UVIndex_Sfc_RLatLon0.09_PT043H.grib2 2026-04-15 20:52 387K
20260415T18Z_MSC_RDPS_UpwardLongwaveRadiationFlux_NTAtm_RLatLon0.09_PT043H.grib2 2026-04-15 20:52 481K
20260415T18Z_MSC_RDPS_UpwardShortwaveRadiationFlux_NTAtm_RLatLon0.09_PT043H.grib2 2026-04-15 20:52 342K
20260415T18Z_MSC_RDPS_VerticalVelocity_IsbL-0250_RLatLon0.09_PT043H.grib2 2026-04-15 20:52 684K
20260415T18Z_MSC_RDPS_VerticalVelocity_IsbL-0500_RLatLon0.09_PT043H.grib2 2026-04-15 20:52 537K
20260415T18Z_MSC_RDPS_VerticalVelocity_IsbL-0700_RLatLon0.09_PT043H.grib2 2026-04-15 20:52 583K
20260415T18Z_MSC_RDPS_VerticalVelocity_IsbL-0850_RLatLon0.09_PT043H.grib2 2026-04-15 20:52 689K
20260415T18Z_MSC_RDPS_VerticalWindShear_EtaL-6500_RLatLon0.09_PT043H.grib2 2026-04-15 20:52 1.2M
20260415T18Z_MSC_RDPS_WindChill_Sfc_RLatLon0.09_PT043H.grib2 2026-04-15 20:52 1.3M
20260415T18Z_MSC_RDPS_WindDir_AGL-10m_RLatLon0.09_PT043H.grib2 2026-04-15 20:52 1.0M
20260415T18Z_MSC_RDPS_WindDir_AGL-120m_RLatLon0.09_PT043H.grib2 2026-04-15 20:52 629K
20260415T18Z_MSC_RDPS_WindDir_AGL-40m_RLatLon0.09_PT043H.grib2 2026-04-15 20:52 667K
20260415T18Z_MSC_RDPS_WindDir_AGL-80m_RLatLon0.09_PT043H.grib2 2026-04-15 20:52 645K
20260415T18Z_MSC_RDPS_WindDir_IsbL-0001_RLatLon0.09_PT043H.grib2 2026-04-15 20:52 264K
20260415T18Z_MSC_RDPS_WindDir_IsbL-0005_RLatLon0.09_PT043H.grib2 2026-04-15 20:52 339K
20260415T18Z_MSC_RDPS_WindDir_IsbL-0010_RLatLon0.09_PT043H.grib2 2026-04-15 20:52 361K
20260415T18Z_MSC_RDPS_WindDir_IsbL-0020_RLatLon0.09_PT043H.grib2 2026-04-15 20:52 380K
20260415T18Z_MSC_RDPS_WindDir_IsbL-0030_RLatLon0.09_PT043H.grib2 2026-04-15 20:52 380K
20260415T18Z_MSC_RDPS_WindDir_IsbL-0050_RLatLon0.09_PT043H.grib2 2026-04-15 20:52 398K
20260415T18Z_MSC_RDPS_WindDir_IsbL-0100_RLatLon0.09_PT043H.grib2 2026-04-15 20:52 385K
20260415T18Z_MSC_RDPS_WindDir_IsbL-0150_RLatLon0.09_PT043H.grib2 2026-04-15 20:52 374K
20260415T18Z_MSC_RDPS_WindDir_IsbL-0175_RLatLon0.09_PT043H.grib2 2026-04-15 20:52 396K
20260415T18Z_MSC_RDPS_WindDir_IsbL-0200_RLatLon0.09_PT043H.grib2 2026-04-15 20:52 417K
20260415T18Z_MSC_RDPS_WindDir_IsbL-0225_RLatLon0.09_PT043H.grib2 2026-04-15 20:52 425K
20260415T18Z_MSC_RDPS_WindDir_IsbL-0250_RLatLon0.09_PT043H.grib2 2026-04-15 20:52 430K
20260415T18Z_MSC_RDPS_WindDir_IsbL-0275_RLatLon0.09_PT043H.grib2 2026-04-15 20:52 454K
20260415T18Z_MSC_RDPS_WindDir_IsbL-0300_RLatLon0.09_PT043H.grib2 2026-04-15 20:52 453K
20260415T18Z_MSC_RDPS_WindDir_IsbL-0350_RLatLon0.09_PT043H.grib2 2026-04-15 20:52 473K
20260415T18Z_MSC_RDPS_WindDir_IsbL-0400_RLatLon0.09_PT043H.grib2 2026-04-15 20:52 493K
20260415T18Z_MSC_RDPS_WindDir_IsbL-0450_RLatLon0.09_PT043H.grib2 2026-04-15 20:52 516K
20260415T18Z_MSC_RDPS_WindDir_IsbL-0500_RLatLon0.09_PT043H.grib2 2026-04-15 20:52 543K
20260415T18Z_MSC_RDPS_WindDir_IsbL-0550_RLatLon0.09_PT043H.grib2 2026-04-15 20:52 565K
20260415T18Z_MSC_RDPS_WindDir_IsbL-0600_RLatLon0.09_PT043H.grib2 2026-04-15 20:52 589K
20260415T18Z_MSC_RDPS_WindDir_IsbL-0650_RLatLon0.09_PT043H.grib2 2026-04-15 20:52 634K
20260415T18Z_MSC_RDPS_WindDir_IsbL-0700_RLatLon0.09_PT043H.grib2 2026-04-15 20:52 674K
20260415T18Z_MSC_RDPS_WindDir_IsbL-0750_RLatLon0.09_PT043H.grib2 2026-04-15 20:52 722K
20260415T18Z_MSC_RDPS_WindDir_IsbL-0800_RLatLon0.09_PT043H.grib2 2026-04-15 20:52 789K
20260415T18Z_MSC_RDPS_WindDir_IsbL-0850_RLatLon0.09_PT043H.grib2 2026-04-15 20:52 870K
20260415T18Z_MSC_RDPS_WindDir_IsbL-0875_RLatLon0.09_PT043H.grib2 2026-04-15 20:52 901K
20260415T18Z_MSC_RDPS_WindDir_IsbL-0900_RLatLon0.09_PT043H.grib2 2026-04-15 20:52 924K
20260415T18Z_MSC_RDPS_WindDir_IsbL-0925_RLatLon0.09_PT043H.grib2 2026-04-15 20:52 938K
20260415T18Z_MSC_RDPS_WindDir_IsbL-0950_RLatLon0.09_PT043H.grib2 2026-04-15 20:52 939K
20260415T18Z_MSC_RDPS_WindDir_IsbL-0970_RLatLon0.09_PT043H.grib2 2026-04-15 20:52 944K
20260415T18Z_MSC_RDPS_WindDir_IsbL-0985_RLatLon0.09_PT043H.grib2 2026-04-15 20:52 957K
20260415T18Z_MSC_RDPS_WindDir_IsbL-1000_RLatLon0.09_PT043H.grib2 2026-04-15 20:52 1.0M
20260415T18Z_MSC_RDPS_WindDir_IsbL-1015_RLatLon0.09_PT043H.grib2 2026-04-15 20:52 1.0M
20260415T18Z_MSC_RDPS_WindGust-Max_AGL-10m_RLatLon0.09_PT043H.grib2 2026-04-15 20:52 1.0M
20260415T18Z_MSC_RDPS_WindGust-Min_AGL-10m_RLatLon0.09_PT043H.grib2 2026-04-15 20:52 1.0M
20260415T18Z_MSC_RDPS_WindGust_AGL-10m_RLatLon0.09_PT043H.grib2 2026-04-15 20:52 1.0M
20260415T18Z_MSC_RDPS_WindSpeed_AGL-10m_RLatLon0.09_PT043H.grib2 2026-04-15 20:52 861K
20260415T18Z_MSC_RDPS_WindSpeed_AGL-120m_RLatLon0.09_PT043H.grib2 2026-04-15 20:52 565K
20260415T18Z_MSC_RDPS_WindSpeed_AGL-40m_RLatLon0.09_PT043H.grib2 2026-04-15 20:52 556K
20260415T18Z_MSC_RDPS_WindSpeed_AGL-80m_RLatLon0.09_PT043H.grib2 2026-04-15 20:52 555K
20260415T18Z_MSC_RDPS_WindSpeed_IsbL-0001_RLatLon0.09_PT043H.grib2 2026-04-15 20:52 295K
20260415T18Z_MSC_RDPS_WindSpeed_IsbL-0005_RLatLon0.09_PT043H.grib2 2026-04-15 20:52 337K
20260415T18Z_MSC_RDPS_WindSpeed_IsbL-0010_RLatLon0.09_PT043H.grib2 2026-04-15 20:52 349K
20260415T18Z_MSC_RDPS_WindSpeed_IsbL-0020_RLatLon0.09_PT043H.grib2 2026-04-15 20:52 369K
20260415T18Z_MSC_RDPS_WindSpeed_IsbL-0030_RLatLon0.09_PT043H.grib2 2026-04-15 20:52 335K
20260415T18Z_MSC_RDPS_WindSpeed_IsbL-0050_RLatLon0.09_PT043H.grib2 2026-04-15 20:52 374K
20260415T18Z_MSC_RDPS_WindSpeed_IsbL-0100_RLatLon0.09_PT043H.grib2 2026-04-15 20:52 486K
20260415T18Z_MSC_RDPS_WindSpeed_IsbL-0150_RLatLon0.09_PT043H.grib2 2026-04-15 20:52 367K
20260415T18Z_MSC_RDPS_WindSpeed_IsbL-0175_RLatLon0.09_PT043H.grib2 2026-04-15 20:52 415K
20260415T18Z_MSC_RDPS_WindSpeed_IsbL-0200_RLatLon0.09_PT043H.grib2 2026-04-15 20:52 432K
20260415T18Z_MSC_RDPS_WindSpeed_IsbL-0225_RLatLon0.09_PT043H.grib2 2026-04-15 20:52 443K
20260415T18Z_MSC_RDPS_WindSpeed_IsbL-0250_RLatLon0.09_PT043H.grib2 2026-04-15 20:52 448K
20260415T18Z_MSC_RDPS_WindSpeed_IsbL-0275_RLatLon0.09_PT043H.grib2 2026-04-15 20:52 465K
20260415T18Z_MSC_RDPS_WindSpeed_IsbL-0300_RLatLon0.09_PT043H.grib2 2026-04-15 20:52 462K
20260415T18Z_MSC_RDPS_WindSpeed_IsbL-0350_RLatLon0.09_PT043H.grib2 2026-04-15 20:52 472K
20260415T18Z_MSC_RDPS_WindSpeed_IsbL-0400_RLatLon0.09_PT043H.grib2 2026-04-15 20:52 457K
20260415T18Z_MSC_RDPS_WindSpeed_IsbL-0450_RLatLon0.09_PT043H.grib2 2026-04-15 20:52 455K
20260415T18Z_MSC_RDPS_WindSpeed_IsbL-0500_RLatLon0.09_PT043H.grib2 2026-04-15 20:52 571K
20260415T18Z_MSC_RDPS_WindSpeed_IsbL-0550_RLatLon0.09_PT043H.grib2 2026-04-15 20:52 573K
20260415T18Z_MSC_RDPS_WindSpeed_IsbL-0600_RLatLon0.09_PT043H.grib2 2026-04-15 20:52 583K
20260415T18Z_MSC_RDPS_WindSpeed_IsbL-0650_RLatLon0.09_PT043H.grib2 2026-04-15 20:52 648K
20260415T18Z_MSC_RDPS_WindSpeed_IsbL-0700_RLatLon0.09_PT043H.grib2 2026-04-15 20:52 671K
20260415T18Z_MSC_RDPS_WindSpeed_IsbL-0750_RLatLon0.09_PT043H.grib2 2026-04-15 20:52 658K
20260415T18Z_MSC_RDPS_WindSpeed_IsbL-0800_RLatLon0.09_PT043H.grib2 2026-04-15 20:52 711K
20260415T18Z_MSC_RDPS_WindSpeed_IsbL-0850_RLatLon0.09_PT043H.grib2 2026-04-15 20:52 773K
20260415T18Z_MSC_RDPS_WindSpeed_IsbL-0875_RLatLon0.09_PT043H.grib2 2026-04-15 20:52 796K
20260415T18Z_MSC_RDPS_WindSpeed_IsbL-0900_RLatLon0.09_PT043H.grib2 2026-04-15 20:52 816K
20260415T18Z_MSC_RDPS_WindSpeed_IsbL-0925_RLatLon0.09_PT043H.grib2 2026-04-15 20:52 876K
20260415T18Z_MSC_RDPS_WindSpeed_IsbL-0950_RLatLon0.09_PT043H.grib2 2026-04-15 20:52 877K
20260415T18Z_MSC_RDPS_WindSpeed_IsbL-0970_RLatLon0.09_PT043H.grib2 2026-04-15 20:52 873K
20260415T18Z_MSC_RDPS_WindSpeed_IsbL-0985_RLatLon0.09_PT043H.grib2 2026-04-15 20:52 867K
20260415T18Z_MSC_RDPS_WindSpeed_IsbL-1000_RLatLon0.09_PT043H.grib2 2026-04-15 20:52 866K
20260415T18Z_MSC_RDPS_WindSpeed_IsbL-1015_RLatLon0.09_PT043H.grib2 2026-04-15 20:52 859K
20260415T18Z_MSC_RDPS_WindU_AGL-10m_RLatLon0.09_PT043H.grib2 2026-04-15 20:52 442K
20260415T18Z_MSC_RDPS_WindU_AGL-120m_RLatLon0.09_PT043H.grib2 2026-04-15 20:52 431K
20260415T18Z_MSC_RDPS_WindU_AGL-40m_RLatLon0.09_PT043H.grib2 2026-04-15 20:52 552K
20260415T18Z_MSC_RDPS_WindU_AGL-80m_RLatLon0.09_PT043H.grib2 2026-04-15 20:52 432K
20260415T18Z_MSC_RDPS_WindU_IsbL-0001_RLatLon0.09_PT043H.grib2 2026-04-15 20:52 290K
20260415T18Z_MSC_RDPS_WindU_IsbL-0005_RLatLon0.09_PT043H.grib2 2026-04-15 20:52 302K
20260415T18Z_MSC_RDPS_WindU_IsbL-0010_RLatLon0.09_PT043H.grib2 2026-04-15 20:52 244K
20260415T18Z_MSC_RDPS_WindU_IsbL-0020_RLatLon0.09_PT043H.grib2 2026-04-15 20:52 258K
20260415T18Z_MSC_RDPS_WindU_IsbL-0030_RLatLon0.09_PT043H.grib2 2026-04-15 20:52 259K
20260415T18Z_MSC_RDPS_WindU_IsbL-0050_RLatLon0.09_PT043H.grib2 2026-04-15 20:52 366K
20260415T18Z_MSC_RDPS_WindU_IsbL-0100_RLatLon0.09_PT043H.grib2 2026-04-15 20:52 343K
20260415T18Z_MSC_RDPS_WindU_IsbL-0150_RLatLon0.09_PT043H.grib2 2026-04-15 20:52 385K
20260415T18Z_MSC_RDPS_WindU_IsbL-0175_RLatLon0.09_PT043H.grib2 2026-04-15 20:52 410K
20260415T18Z_MSC_RDPS_WindU_IsbL-0200_RLatLon0.09_PT043H.grib2 2026-04-15 20:52 426K
20260415T18Z_MSC_RDPS_WindU_IsbL-0225_RLatLon0.09_PT043H.grib2 2026-04-15 20:52 436K
20260415T18Z_MSC_RDPS_WindU_IsbL-0250_RLatLon0.09_PT043H.grib2 2026-04-15 20:52 440K
20260415T18Z_MSC_RDPS_WindU_IsbL-0275_RLatLon0.09_PT043H.grib2 2026-04-15 20:52 356K
20260415T18Z_MSC_RDPS_WindU_IsbL-0300_RLatLon0.09_PT043H.grib2 2026-04-15 20:52 351K
20260415T18Z_MSC_RDPS_WindU_IsbL-0350_RLatLon0.09_PT043H.grib2 2026-04-15 20:52 357K
20260415T18Z_MSC_RDPS_WindU_IsbL-0400_RLatLon0.09_PT043H.grib2 2026-04-15 20:52 462K
20260415T18Z_MSC_RDPS_WindU_IsbL-0450_RLatLon0.09_PT043H.grib2 2026-04-15 20:52 461K
20260415T18Z_MSC_RDPS_WindU_IsbL-0500_RLatLon0.09_PT043H.grib2 2026-04-15 20:52 461K
20260415T18Z_MSC_RDPS_WindU_IsbL-0550_RLatLon0.09_PT043H.grib2 2026-04-15 20:52 464K
20260415T18Z_MSC_RDPS_WindU_IsbL-0600_RLatLon0.09_PT043H.grib2 2026-04-15 20:52 472K
20260415T18Z_MSC_RDPS_WindU_IsbL-0650_RLatLon0.09_PT043H.grib2 2026-04-15 20:52 490K
20260415T18Z_MSC_RDPS_WindU_IsbL-0700_RLatLon0.09_PT043H.grib2 2026-04-15 20:52 496K
20260415T18Z_MSC_RDPS_WindU_IsbL-0750_RLatLon0.09_PT043H.grib2 2026-04-15 20:52 523K
20260415T18Z_MSC_RDPS_WindU_IsbL-0800_RLatLon0.09_PT043H.grib2 2026-04-15 20:52 570K
20260415T18Z_MSC_RDPS_WindU_IsbL-0850_RLatLon0.09_PT043H.grib2 2026-04-15 20:52 635K
20260415T18Z_MSC_RDPS_WindU_IsbL-0875_RLatLon0.09_PT043H.grib2 2026-04-15 20:52 654K
20260415T18Z_MSC_RDPS_WindU_IsbL-0900_RLatLon0.09_PT043H.grib2 2026-04-15 20:52 669K
20260415T18Z_MSC_RDPS_WindU_IsbL-0925_RLatLon0.09_PT043H.grib2 2026-04-15 20:52 679K
20260415T18Z_MSC_RDPS_WindU_IsbL-0950_RLatLon0.09_PT043H.grib2 2026-04-15 20:52 671K
20260415T18Z_MSC_RDPS_WindU_IsbL-0970_RLatLon0.09_PT043H.grib2 2026-04-15 20:52 667K
20260415T18Z_MSC_RDPS_WindU_IsbL-0985_RLatLon0.09_PT043H.grib2 2026-04-15 20:52 665K
20260415T18Z_MSC_RDPS_WindU_IsbL-1000_RLatLon0.09_PT043H.grib2 2026-04-15 20:52 805K
20260415T18Z_MSC_RDPS_WindU_IsbL-1015_RLatLon0.09_PT043H.grib2 2026-04-15 20:52 799K
20260415T18Z_MSC_RDPS_WindV_AGL-10m_RLatLon0.09_PT043H.grib2 2026-04-15 20:52 439K
20260415T18Z_MSC_RDPS_WindV_AGL-120m_RLatLon0.09_PT043H.grib2 2026-04-15 20:52 427K
20260415T18Z_MSC_RDPS_WindV_AGL-40m_RLatLon0.09_PT043H.grib2 2026-04-15 20:52 547K
20260415T18Z_MSC_RDPS_WindV_AGL-80m_RLatLon0.09_PT043H.grib2 2026-04-15 20:52 428K
20260415T18Z_MSC_RDPS_WindV_IsbL-0001_RLatLon0.09_PT043H.grib2 2026-04-15 20:52 208K
20260415T18Z_MSC_RDPS_WindV_IsbL-0005_RLatLon0.09_PT043H.grib2 2026-04-15 20:52 301K
20260415T18Z_MSC_RDPS_WindV_IsbL-0010_RLatLon0.09_PT043H.grib2 2026-04-15 20:52 341K
20260415T18Z_MSC_RDPS_WindV_IsbL-0020_RLatLon0.09_PT043H.grib2 2026-04-15 20:52 325K
20260415T18Z_MSC_RDPS_WindV_IsbL-0030_RLatLon0.09_PT043H.grib2 2026-04-15 20:52 329K
20260415T18Z_MSC_RDPS_WindV_IsbL-0050_RLatLon0.09_PT043H.grib2 2026-04-15 20:52 366K
20260415T18Z_MSC_RDPS_WindV_IsbL-0100_RLatLon0.09_PT043H.grib2 2026-04-15 20:52 434K
20260415T18Z_MSC_RDPS_WindV_IsbL-0150_RLatLon0.09_PT043H.grib2 2026-04-15 20:52 381K
20260415T18Z_MSC_RDPS_WindV_IsbL-0175_RLatLon0.09_PT043H.grib2 2026-04-15 20:52 315K
20260415T18Z_MSC_RDPS_WindV_IsbL-0200_RLatLon0.09_PT043H.grib2 2026-04-15 20:52 330K
20260415T18Z_MSC_RDPS_WindV_IsbL-0225_RLatLon0.09_PT043H.grib2 2026-04-15 20:52 337K
20260415T18Z_MSC_RDPS_WindV_IsbL-0250_RLatLon0.09_PT043H.grib2 2026-04-15 20:52 340K
20260415T18Z_MSC_RDPS_WindV_IsbL-0275_RLatLon0.09_PT043H.grib2 2026-04-15 20:52 353K
20260415T18Z_MSC_RDPS_WindV_IsbL-0300_RLatLon0.09_PT043H.grib2 2026-04-15 20:52 350K
20260415T18Z_MSC_RDPS_WindV_IsbL-0350_RLatLon0.09_PT043H.grib2 2026-04-15 20:52 357K
20260415T18Z_MSC_RDPS_WindV_IsbL-0400_RLatLon0.09_PT043H.grib2 2026-04-15 20:52 358K
20260415T18Z_MSC_RDPS_WindV_IsbL-0450_RLatLon0.09_PT043H.grib2 2026-04-15 20:52 458K
20260415T18Z_MSC_RDPS_WindV_IsbL-0500_RLatLon0.09_PT043H.grib2 2026-04-15 20:52 458K
20260415T18Z_MSC_RDPS_WindV_IsbL-0550_RLatLon0.09_PT043H.grib2 2026-04-15 20:52 461K
20260415T18Z_MSC_RDPS_WindV_IsbL-0600_RLatLon0.09_PT043H.grib2 2026-04-15 20:52 452K
20260415T18Z_MSC_RDPS_WindV_IsbL-0650_RLatLon0.09_PT043H.grib2 2026-04-15 20:52 471K
20260415T18Z_MSC_RDPS_WindV_IsbL-0700_RLatLon0.09_PT043H.grib2 2026-04-15 20:52 492K
20260415T18Z_MSC_RDPS_WindV_IsbL-0750_RLatLon0.09_PT043H.grib2 2026-04-15 20:52 519K
20260415T18Z_MSC_RDPS_WindV_IsbL-0800_RLatLon0.09_PT043H.grib2 2026-04-15 20:52 565K
20260415T18Z_MSC_RDPS_WindV_IsbL-0850_RLatLon0.09_PT043H.grib2 2026-04-15 20:52 622K
20260415T18Z_MSC_RDPS_WindV_IsbL-0875_RLatLon0.09_PT043H.grib2 2026-04-15 20:52 642K
20260415T18Z_MSC_RDPS_WindV_IsbL-0900_RLatLon0.09_PT043H.grib2 2026-04-15 20:52 660K
20260415T18Z_MSC_RDPS_WindV_IsbL-0925_RLatLon0.09_PT043H.grib2 2026-04-15 20:52 669K
20260415T18Z_MSC_RDPS_WindV_IsbL-0950_RLatLon0.09_PT043H.grib2 2026-04-15 20:52 666K
20260415T18Z_MSC_RDPS_WindV_IsbL-0970_RLatLon0.09_PT043H.grib2 2026-04-15 20:52 661K
20260415T18Z_MSC_RDPS_WindV_IsbL-0985_RLatLon0.09_PT043H.grib2 2026-04-15 20:52 800K
20260415T18Z_MSC_RDPS_WindV_IsbL-1000_RLatLon0.09_PT043H.grib2 2026-04-15 20:52 799K
20260415T18Z_MSC_RDPS_WindV_IsbL-1015_RLatLon0.09_PT043H.grib2 2026-04-15 20:52 793K